Location: Unspecified
(0.0000°N, 0.0000°E)
Time: 21:22:18
(UTC+00:00)

Kosmos-1429 - Pass Details

Date: 29 February 2024
Orbit: 1466 x 1518 km, 74.0° (Epoch: 21 April)

Event Time Altitude Azimuth Distance (km) Brightness Sun altitude
Rises 19:31:51 0° 306° (NW) 4,644 ? -19.7°
Reaches altitude 10° 19:37:24 10° 278° (W) 3,656 ? -21.1°
Maximum altitude 19:40:29 12° 257° (WSW) 3,483 ? -21.8°
Drops below altitude 10° 19:43:34 10° 236° (WSW) 3,646 ? -22.6°
Sets 19:49:10 0° 208° (SSW) 4,616 ? -24.0°
